Location: Great Chart
(51.1333°N, 0.8333°E)
Time: 11:07:54
(UTC+00:00)

Cosmos 2181 Rocket - Pass Details

Date: 19 September 2020
Orbit: 953 x 1014 km, 82.9° (Epoch: 30 October)

Event Time Altitude Azimuth Distance (km) Brightness Sun altitude
Exits shadow 01:47:57 67° 76° (ENE) 1,041 4.1 -31.9°
Drops below altitude 10° 01:53:48 10° 14° (NNE) 2,720 7.1 -31.4°
Sets 01:56:21 0° 12° (NNE) 3,679 7.9 -31.1°
